Holmivskyi

Ukraine / Donetsk Region     48˚24′01″N   38˚04′47″E
temp.,
°C
wind,
m/s
gust,
m/s
humid.,
%
clouds,
%
prec.,
mm/h
press.,
hPa
HPBL,
m
28 november, sat
sat2823:00+7˚ssw61174100 0.0 1022460
02:00+7˚ssw51180100 0.0 1022498
05:00+6˚s51083100 0.0 1022413
08:00+6˚s61088100 0.0 1023404
11:00+6˚s61077100 0.0 1024599
14:00+7˚sse5966100 0.0 1023824
17:00+4˚se41083100 0.0 1023405
20:00+4˚se51182100 0.0 1023384
29 november, sun
sun2923:00+3˚sse497998 0.0 1023271
02:00+1˚se598258 0.0 1023213
05:00+1˚se499483 0.0 1023264
08:00+2˚se6109574 0.0 1024371
11:00+4˚sse6884100 0.0 1024439
14:00+5˚sse6983100 0.0 1024467
17:00+5˚se4129199 0.0 1025457
20:00+5˚se61488100 0.0 1026519
30 november, mon
mon3023:00+4˚se5139194 0.0 1025469
02:00+5˚se5109096 0.0 1026516
05:00+5˚se61088100 0.0 1025565
08:00+5˚se61082100 0.0 1026704
11:00+6˚ese71071100 0.0 1026738
14:00+6˚ese696698 0.0 1025899
17:00+5˚ese61070100 0.0 1025926
20:00+5˚ese61073100 0.0 1026883
1 december, tue
tue123:00+3˚ese51072100 0.0 1026650
02:00+2˚ese61073100 0.0 1026599
05:00e5107685 0.0 1026546
08:00e6118175 0.0 1027595
11:00+2˚e6107085 0.0 1026703
14:00+3˚e7106887 0.0 1026795
17:00+2˚ese7107187 0.0 1027914
20:00+1˚e7117494 0.0 1027664
2 december, wed
wed223:00e7117798 0.0 1028682
02:00ese6117999 0.0 1028622
05:00ese71178100 0.0 1028602
08:00+1˚ese71176100 0.0 1029749
11:00+2˚ese61072100 0.0 1030695
14:00+3˚ese6972100 0.0 1029772
17:00e6117495 0.0 1029607
20:00−1˚ese6117575 0.0 1030533